AirNav   TITAN Aviation Fuels
 
 553 users online  

AL05 Sehoy Airport
Hurtsboro, Alabama, USA

GOING TO HURTSBORO?


FAA INFORMATION EFFECTIVE 01 DECEMBER 2022

Location

FAA Identifier: AL05
Lat/Long: 32-13-16.8096N 085-28-18.4188W
32-13.280160N 085-28.306980W
32.2213360,-85.4717830
(estimated)
Elevation: 331 ft. / 101 m (estimated)
Variation: 01E (1985)
From city: 3 miles SW of HURTSBORO, AL
Time zone: UTC -6 (UTC -5 during Daylight Saving Time)
Zip code: 36860

Airport Operations

Airport use: Private use. Permission required prior to landing
Control tower: no
ARTCC: ATLANTA CENTER
FSS: ANNISTON FLIGHT SERVICE STATION
Attendance: UNATNDD
Wind indicator: lighted
Segmented circle: yes
Lights: RWY LGTS ON REQ; MON-FRI FROM 0730 TO 1530 CALL 334-253-2100. AFTER HRS AND WKENDS CALL 706-773-3167.
Beacon: white-green (lighted land airport)
ROTG BCN ON REQ; MON-FRI FROM 0730 TO 1530 CALL 334-253-2100. AFTER HRS AND WKENDS CALL 706-773-3167.

Nearby radio navigation aids

VOR radial/distance  VOR name  Freq  Var
TGEr146/18.7TUSKEGEE VOR/DME117.3002E
EUFr311/23.8EUFAULA VORTAC109.2002E
LSFr257/25.2LAWSON VOR/DME111.4002W
CSGr223/33.0COLUMBUS VORTAC117.1001E

 
NDB name  Hdg/Dist  Freq  Var  ID
LAWSON261/23.233502WAWS .- .-- ...
BLOOD058/39.936504WTOI - --- ..

Airport Services

Parking: hangars

Runway Information

Runway 4/22

Dimensions: 5000 x 75 ft. / 1524 x 23 m
Surface: asphalt, in good condition
Runway edge lights: medium intensity
RUNWAY 4  RUNWAY 22
Latitude: 32-12.963720N32-13.596600N
Longitude: 085-28.617360W085-27.996600W
Elevation: 331.0 ft.324.0 ft.
Traffic pattern: leftleft
Markings: basic, in good conditionbasic, in good condition
Visual slope indicator: 2-box VASI on left2-box VASI on left
Touchdown point: yes, no lightsyes, no lights
Obstructions: 52 ft. trees, 800 ft. from runway, 300 ft. left of centerline, 11:1 slope to clear57 ft. trees, 750 ft. from runway, 275 ft. left of centerline, 9:1 slope to clear

Airport Ownership and Management from official FAA records

Ownership: Privately-owned
Owner: STEVE WILLIAMS
1637 BARRY AVE
BIRMINGHAM, AL 35209
Phone 706-464-3787
Manager: STEVE WILLIAMS
1637 BARRY AVE
BIRMINGHAM, AL 35209
Phone 706-464-3787

Airport Operational Statistics

Aircraft operations: avg 22/month *
92% local general aviation
8% transient general aviation
* for 12-month period ending 07 February 1990

Additional Remarks

FOR CD CTC ATLANTA APCH AT 678-364-6132, WHEN APCH CLSD CTC ATLANTA ARTCC AT 770-210-7692.

Instrument Procedures

There are no published instrument procedures at AL05.

Some nearby airports with instrument procedures:

06A - Moton Field Municipal Airport (18 nm NW)
11A - Clayton Municipal Airport (20 nm S)
KAUO - Auburn University Regional Airport (24 nm N)
KEUF - Weedon Field Airport (24 nm SE)
KLSF - Lawson Army Airfield (Fort Benning) (25 nm E)
 
Loc | Ops | Rwys | IFR | FBO | Links
Com | Nav | Svcs | Stats | Notes
Area around AL05 (Sehoy Airport)
 
Road maps at: MapQuest Bing Google
 
Aerial photo
WARNING: Photo may not be current or correct
Aerial photo of AL05 (Sehoy Airport)
Photo courtesy of AirNav, LLC
Photo taken 05-May-2011
looking west.

Do you have a better or more recent aerial photo of Sehoy Airport that you would like to share? If so, please send us your photo.

 
Sectional chart

 
Airport distance calculator
Flying to Sehoy Airport? Find the distance to fly.

From to AL05

Sunrise and sunset
Times for 07-Dec-2022
 Local
(UTC-6)
 Zulu
(UTC)
Morning civil twilight06:0412:04
Sunrise06:3112:31
Sunset16:3622:36
Evening civil twilight17:0323:03

Current date and time
Zulu (UTC)  07-Dec-2022 08:16:32
Local (UTC-6)  07-Dec-2022 02:16:32
 
METAR
KEUF 
24nm SE 
070758Z AUTO 19003KT 8SM OVC005 20/19 A3024 RMK AO2 SLP238 I1000 T02000194
KLSF 
25nm E 
070800Z AUTO 00000KT 9SM OVC009 17/16 A3022 RMK AO2 SLP237 CHINO RWY15 $
KCSG 
32nm NE 
070802Z AUTO 00000KT 10SM OVC008 19/18 A3024 RMK AO2 T01890178
KTOI 
36nm SW 
070753Z AUTO 18004KT 10SM OVC021 21/19 A3023 RMK AO2 SLP233 T02060189
KMXF 
46nm W 
070755Z AUTO 00000KT 3/8SM R15/1600V3500FT FG FEW200 18/17 A3019 RMK AO2 SLP225 T01820165
KMGM 
47nm W 
070753Z AUTO 00000KT 10SM CLR 18/18 A3021 RMK AO2 SLP228 T01830178
TAF
KLSF 
25nm E 
062200Z 0622/0804 16006KT 9999 SCT030 SCT150 QNH3008INS BECMG 0708/0709 VRB05KT 6000 BR BKN010 BKN040 QNH3021INS TEMPO 0709/0712 0800 FG FEW000 OVC006 BECMG 0715/0716 24009KT 9999 NSW SCT020 SCT040 QNH3015INS BECMG 0723/0724 26005KT 9999 BKN015 BKN040 QNH3020INS TX24/0622Z TN16/0712Z LAST NO AMDS AFT 0704 NEXT 0714
NOTAMs
Click for the latest NOTAMs
NOTAMs are issued by the DoD/FAA and will open in a separate window not controlled by AirNav.

 

 
 

Would you like to see your business listed on this page?

 If your business provides an interesting product or service to pilots, flight crews, aircraft, or users of the Sehoy Airport, you should consider listing it here.  To start the listing process, click on the button below
 
Add a business
 

Other Pages about Sehoy Airport

Update a link
 
Copyright © AirNav, LLC. All rights reserved. Privacy Policy  Contact